EXS823K EGGP-GCTS

Flight info

Callsign EXS823K
Flight time N/A
Altitude 34000
Route WAL L10 PENIL M144 BAGSO DCT BUNED DCT WTD DCT TUVEN/M081F340 DCT LASNO T9 BEGAS/N0467F340 DCT RIPEL/N0464F350 DCT OBESA/N0461F370 DCT PECKY DCT RAKUN DCT ORTIS
Aircraft B738/M-SDE2E3FGHIRWXY/LB1

Departure

Time N/A
Airport Liverpool John Lennon Airport (EGGP)

Arrival

Time 2026-04-30 12:04
Airport Tenerife Sur Airport (GCTS)
Time Latitude Longitude Altitude Speed Heading
2026-04-30 11:08 32.62833 -16.12094 34078 ft 488 kts 206°
2026-04-30 11:08 32.59544 -16.13284 34075 ft 488 kts 206°
2026-04-30 11:09 32.53043 -16.15633 34074 ft 489 kts 206°
2026-04-30 11:09 32.46526 -16.17986 34075 ft 490 kts 206°
2026-04-30 11:10 32.39999 -16.20339 34072 ft 491 kts 206°
2026-04-30 11:10 32.33464 -16.22691 34076 ft 491 kts 206°
2026-04-30 11:11 32.26919 -16.25042 34070 ft 492 kts 206°
2026-04-30 11:11 32.20357 -16.27397 34151 ft 495 kts 206°
2026-04-30 11:11 32.17056 -16.28581 34405 ft 495 kts 206°
2026-04-30 11:12 32.13771 -16.29755 34736 ft 492 kts 206°
2026-04-30 11:12 32.10505 -16.30919 35059 ft 490 kts 206°
2026-04-30 11:12 32.07234 -16.32089 35068 ft 493 kts 206°
2026-04-30 11:13 32.00681 -16.34432 35072 ft 490 kts 206°
2026-04-30 11:13 31.94180 -16.36748 35086 ft 487 kts 206°
2026-04-30 11:14 31.87706 -16.39056 35080 ft 485 kts 206°
2026-04-30 11:14 31.81246 -16.41354 35087 ft 485 kts 206°
2026-04-30 11:15 31.74792 -16.43646 35084 ft 484 kts 206°
2026-04-30 11:15 31.68336 -16.45936 35083 ft 485 kts 206°
2026-04-30 11:16 31.61868 -16.48227 35088 ft 486 kts 206°
2026-04-30 11:16 31.55392 -16.50517 35081 ft 487 kts 206°
2026-04-30 11:17 31.48900 -16.52809 35084 ft 487 kts 206°
2026-04-30 11:17 31.42408 -16.55099 35098 ft 488 kts 205°
2026-04-30 11:17 31.39014 -16.55761 35061 ft 508 kts 186°
2026-04-30 11:18 31.35458 -16.55435 35119 ft 514 kts 181°
2026-04-30 11:18 31.24774 -16.54105 35083 ft 515 kts 181°
2026-04-30 11:19 31.17655 -16.53313 35085 ft 514 kts 181°
2026-04-30 11:19 31.10531 -16.52579 35085 ft 513 kts 182°
2026-04-30 11:20 31.03418 -16.51858 35095 ft 513 kts 182°
2026-04-30 11:20 30.96313 -16.51137 35090 ft 512 kts 182°
2026-04-30 11:21 30.89209 -16.50410 35094 ft 512 kts 182°
2026-04-30 11:21 30.82107 -16.49682 35090 ft 512 kts 182°
2026-04-30 11:22 30.76163 -16.49075 35096 ft 512 kts 182°
2026-04-30 11:22 30.67909 -16.48236 35094 ft 512 kts 182°
2026-04-30 11:23 30.60806 -16.47514 35082 ft 513 kts 181°
2026-04-30 11:24 30.51298 -16.46547 35104 ft 513 kts 181°
2026-04-30 11:24 30.44187 -16.45829 35102 ft 514 kts 181°
2026-04-30 11:25 30.33482 -16.44748 35105 ft 515 kts 181°
2026-04-30 11:26 30.19164 -16.43302 35103 ft 517 kts 181°
2026-04-30 11:26 30.11988 -16.42581 35100 ft 518 kts 181°
2026-04-30 11:27 30.04803 -16.41856 35104 ft 518 kts 181°
2026-04-30 11:27 29.97613 -16.41133 35112 ft 519 kts 181°
2026-04-30 11:28 29.86819 -16.40052 35111 ft 519 kts 181°
2026-04-30 11:29 29.79635 -16.39333 35112 ft 518 kts 181°
2026-04-30 11:29 29.68909 -16.38263 35109 ft 518 kts 181°
2026-04-30 11:30 29.61763 -16.37848 35078 ft 503 kts 197°
2026-04-30 11:30 29.58456 -16.38827 35126 ft 484 kts 211°
2026-04-30 11:30 29.55527 -16.40569 35121 ft 465 kts 224°
2026-04-30 11:31 29.53008 -16.42821 35130 ft 457 kts 229°
2026-04-30 11:31 29.48139 -16.47522 35115 ft 457 kts 230°
2026-04-30 11:32 29.43258 -16.52232 35119 ft 459 kts 229°
2026-04-30 11:32 29.38333 -16.56904 35119 ft 460 kts 229°
2026-04-30 11:33 29.30868 -16.63912 35118 ft 460 kts 229°
2026-04-30 11:33 29.25955 -16.68519 35120 ft 460 kts 229°
2026-04-30 11:34 29.21006 -16.73155 35124 ft 459 kts 229°
2026-04-30 11:34 29.16005 -16.77840 34439 ft 465 kts 229°
2026-04-30 11:35 29.13508 -16.80174 33783 ft 463 kts 229°
2026-04-30 11:35 29.11017 -16.82500 33093 ft 463 kts 229°
2026-04-30 11:35 29.08519 -16.84831 32367 ft 464 kts 228°
2026-04-30 11:35 29.06015 -16.87167 31610 ft 465 kts 228°
2026-04-30 11:36 29.03507 -16.89506 30831 ft 466 kts 227°
2026-04-30 11:36 29.00991 -16.91849 30030 ft 467 kts 227°
2026-04-30 11:36 28.98470 -16.94195 29165 ft 468 kts 226°
2026-04-30 11:36 28.95946 -16.96542 28264 ft 469 kts 226°
2026-04-30 11:37 28.93415 -16.98896 27328 ft 470 kts 226°
2026-04-30 11:37 28.90877 -17.01255 26342 ft 472 kts 225°
2026-04-30 11:37 28.88332 -17.03618 25560 ft 469 kts 225°
2026-04-30 11:37 28.85849 -17.05919 24853 ft 463 kts 225°
2026-04-30 11:38 28.83361 -17.08222 24156 ft 458 kts 225°
2026-04-30 11:38 28.80900 -17.10500 23460 ft 453 kts 224°
2026-04-30 11:38 28.78467 -17.12753 22767 ft 448 kts 224°
2026-04-30 11:38 28.76060 -17.14982 22081 ft 443 kts 224°
2026-04-30 11:39 28.73681 -17.17183 21400 ft 438 kts 224°
2026-04-30 11:39 28.71327 -17.19358 20729 ft 433 kts 224°
2026-04-30 11:39 28.68999 -17.21510 20061 ft 429 kts 224°
2026-04-30 11:39 28.66694 -17.23640 19398 ft 424 kts 224°
2026-04-30 11:40 28.64417 -17.25744 18733 ft 420 kts 224°
2026-04-30 11:40 28.62156 -17.27833 17854 ft 417 kts 223°
2026-04-30 11:40 28.59912 -17.29904 17188 ft 413 kts 223°
2026-04-30 11:40 28.57691 -17.31952 16536 ft 408 kts 223°
2026-04-30 11:41 28.55497 -17.33973 15897 ft 404 kts 223°
2026-04-30 11:41 28.53323 -17.35974 15300 ft 399 kts 222°
2026-04-30 11:41 28.51149 -17.37972 14699 ft 394 kts 222°
2026-04-30 11:41 28.48891 -17.39601 14464 ft 387 kts 205°
2026-04-30 11:42 28.46255 -17.40260 14311 ft 381 kts 185°
2026-04-30 11:42 28.43649 -17.39951 14163 ft 375 kts 167°
2026-04-30 11:42 28.41286 -17.38817 14102 ft 365 kts 151°
2026-04-30 11:42 28.39288 -17.37091 13954 ft 358 kts 136°
2026-04-30 11:43 28.37801 -17.34870 13802 ft 350 kts 122°
2026-04-30 11:43 28.36598 -17.32513 13676 ft 341 kts 120°
2026-04-30 11:43 28.35434 -17.30200 13530 ft 333 kts 121°
2026-04-30 11:43 28.34288 -17.27947 13292 ft 328 kts 121°
2026-04-30 11:44 28.33140 -17.25717 12978 ft 326 kts 121°
2026-04-30 11:44 28.31991 -17.23504 12663 ft 325 kts 121°
2026-04-30 11:44 28.30846 -17.21302 12356 ft 323 kts 121°
2026-04-30 11:44 28.29712 -17.19119 12050 ft 321 kts 121°
2026-04-30 11:45 28.28580 -17.16944 11704 ft 320 kts 121°
2026-04-30 11:45 28.27454 -17.14778 11409 ft 318 kts 121°
2026-04-30 11:45 28.26329 -17.12625 11096 ft 316 kts 122°
2026-04-30 11:45 28.25150 -17.10585 10850 ft 312 kts 125°
2026-04-30 11:46 28.23890 -17.08554 10556 ft 309 kts 126°
2026-04-30 11:46 28.22653 -17.06576 10292 ft 306 kts 126°
2026-04-30 11:46 28.21435 -17.04612 10038 ft 303 kts 125°
2026-04-30 11:46 28.20235 -17.02661 9780 ft 300 kts 125°
2026-04-30 11:47 28.19051 -17.00731 9530 ft 297 kts 125°
2026-04-30 11:47 28.17878 -16.98819 9277 ft 294 kts 125°
2026-04-30 11:47 28.16526 -16.97114 8998 ft 291 kts 147°
2026-04-30 11:47 28.14738 -16.96121 8789 ft 282 kts 159°
2026-04-30 11:48 28.12939 -16.95335 8536 ft 273 kts 160°
2026-04-30 11:48 28.11197 -16.94585 8442 ft 265 kts 160°
2026-04-30 11:48 28.09487 -16.93840 8225 ft 262 kts 160°
2026-04-30 11:48 28.07795 -16.93094 7988 ft 260 kts 159°
2026-04-30 11:49 28.06115 -16.92348 7734 ft 259 kts 159°
2026-04-30 11:49 28.04438 -16.91606 7481 ft 258 kts 161°
2026-04-30 11:49 28.02688 -16.91345 7209 ft 254 kts 192°
2026-04-30 11:49 28.01127 -16.92131 7067 ft 243 kts 221°
2026-04-30 11:50 28.00041 -16.93563 6962 ft 241 kts 243°
2026-04-30 11:50 27.99334 -16.95276 6867 ft 241 kts 249°
2026-04-30 11:50 27.98700 -16.97015 6734 ft 243 kts 249°
2026-04-30 11:50 27.98054 -16.98789 6629 ft 245 kts 249°
2026-04-30 11:51 27.97401 -17.00580 6503 ft 248 kts 249°
2026-04-30 11:51 27.96735 -17.02377 6369 ft 247 kts 249°
2026-04-30 11:51 27.96068 -17.04155 6200 ft 244 kts 249°
2026-04-30 11:51 27.95410 -17.05908 6036 ft 240 kts 249°
2026-04-30 11:52 27.94765 -17.07632 5908 ft 237 kts 249°
2026-04-30 11:52 27.94117 -17.09341 5784 ft 236 kts 249°
2026-04-30 11:52 27.93473 -17.11047 5678 ft 237 kts 249°
2026-04-30 11:52 27.92828 -17.12768 5580 ft 239 kts 249°
2026-04-30 11:53 27.91949 -17.14368 5417 ft 245 kts 222°
2026-04-30 11:53 27.90421 -17.15187 5322 ft 247 kts 187°
2026-04-30 11:53 27.88740 -17.14926 5233 ft 246 kts 159°
2026-04-30 11:53 27.87163 -17.14189 5131 ft 246 kts 156°
2026-04-30 11:54 27.85704 -17.13191 4974 ft 248 kts 132°
2026-04-30 11:54 27.84918 -17.11496 4877 ft 245 kts 100°
2026-04-30 11:54 27.84945 -17.09617 4758 ft 238 kts 76°
2026-04-30 11:54 27.85306 -17.07808 4650 ft 236 kts 69°
2026-04-30 11:55 27.85995 -17.06135 4544 ft 235 kts 62°
2026-04-30 11:55 27.86715 -17.04468 4428 ft 237 kts 63°
2026-04-30 11:55 27.87421 -17.02784 4319 ft 237 kts 64°
2026-04-30 11:55 27.88107 -17.01093 4211 ft 237 kts 65°
2026-04-30 11:56 27.88767 -16.99387 4095 ft 237 kts 65°
2026-04-30 11:56 27.89421 -16.97671 3971 ft 237 kts 66°
2026-04-30 11:56 27.90057 -16.95988 3882 ft 228 kts 66°
2026-04-30 11:56 27.90667 -16.94371 3777 ft 222 kts 66°
2026-04-30 11:57 27.91268 -16.92776 3678 ft 219 kts 66°
2026-04-30 11:57 27.91861 -16.91197 3557 ft 217 kts 66°
2026-04-30 11:57 27.92450 -16.89630 3455 ft 215 kts 66°
2026-04-30 11:57 27.93033 -16.88071 3360 ft 217 kts 66°
2026-04-30 11:58 27.93616 -16.86518 3240 ft 210 kts 66°
2026-04-30 11:58 27.94209 -16.85049 3111 ft 203 kts 64°
2026-04-30 11:58 27.94798 -16.83625 3032 ft 197 kts 64°
2026-04-30 11:58 27.95370 -16.82230 3004 ft 195 kts 65°
2026-04-30 11:59 27.95949 -16.80838 3008 ft 196 kts 62°
2026-04-30 11:59 27.96605 -16.79478 2994 ft 197 kts 62°
2026-04-30 11:59 27.97208 -16.78057 2745 ft 200 kts 66°
2026-04-30 11:59 27.97730 -16.76637 2603 ft 191 kts 68°
2026-04-30 12:00 27.98207 -16.75271 2499 ft 186 kts 69°
2026-04-30 12:00 27.98672 -16.73926 2410 ft 180 kts 69°
2026-04-30 12:00 27.99118 -16.72635 2334 ft 173 kts 69°
2026-04-30 12:00 27.99552 -16.71380 2246 ft 168 kts 69°
2026-04-30 12:01 27.99968 -16.70182 2165 ft 158 kts 70°
2026-04-30 12:01 28.00360 -16.69053 2130 ft 155 kts 70°
2026-04-30 12:01 28.00767 -16.67875 1889 ft 162 kts 70°
2026-04-30 12:01 28.01167 -16.66717 1682 ft 154 kts 70°
2026-04-30 12:02 28.01556 -16.65599 1497 ft 155 kts 71°
2026-04-30 12:02 28.01943 -16.64479 1296 ft 149 kts 72°
2026-04-30 12:02 28.02315 -16.63400 1092 ft 146 kts 72°
2026-04-30 12:02 28.02693 -16.62326 914 ft 147 kts 71°
2026-04-30 12:03 28.03073 -16.61249 704 ft 146 kts 70°
2026-04-30 12:03 28.03811 -16.59098 289 ft 146 kts 72°
2026-04-30 12:03 28.04165 -16.58046 192 ft 136 kts 66°
2026-04-30 12:04 28.04465 -16.57206 206 ft 94 kts 68°
2026-04-30 12:04 28.04633 -16.56717 200 ft 31 kts 69°
2026-04-30 12:04 28.04743 -16.56520 205 ft 29 kts 45°
2026-04-30 12:04 28.04838 -16.56419 213 ft 25 kts 45°
2026-04-30 12:05 28.04891 -16.56366 218 ft 7 kts 23°
2026-04-30 12:05 28.04933 -16.56391 218 ft 9 kts 290°
2026-04-30 12:05 28.04918 -16.56455 218 ft 8 kts 247°
2026-04-30 12:05 28.04896 -16.56516 218 ft 8 kts 249°
2026-04-30 12:06 28.04875 -16.56576 220 ft 9 kts 249°
2026-04-30 12:06 28.04848 -16.56653 218 ft 11 kts 248°
2026-04-30 12:06 28.04819 -16.56736 218 ft 11 kts 249°
2026-04-30 12:06 28.04791 -16.56818 218 ft 11 kts 249°
2026-04-30 12:07 28.04764 -16.56896 219 ft 10 kts 248°
2026-04-30 12:07 28.04737 -16.56972 221 ft 10 kts 248°
2026-04-30 12:07 28.04712 -16.57045 221 ft 10 kts 249°
2026-04-30 12:07 28.04685 -16.57116 222 ft 10 kts 245°
2026-04-30 12:08 28.04654 -16.57182 222 ft 9 kts 250°
2026-04-30 12:08 28.04631 -16.57250 222 ft 9 kts 249°
2026-04-30 12:08 28.04607 -16.57317 222 ft 9 kts 248°
2026-04-30 12:08 28.04585 -16.57381 222 ft 9 kts 248°
2026-04-30 12:09 28.04562 -16.57444 222 ft 8 kts 248°
2026-04-30 12:09 28.04541 -16.57505 222 ft 8 kts 250°
2026-04-30 12:09 28.04521 -16.57564 224 ft 8 kts 249°
2026-04-30 12:09 28.04497 -16.57635 222 ft 11 kts 249°
2026-04-30 12:10 28.04466 -16.57722 222 ft 12 kts 249°
2026-04-30 12:10 28.04436 -16.57808 222 ft 12 kts 248°
2026-04-30 12:10 28.04421 -16.57880 222 ft 8 kts 299°
2026-04-30 12:10 28.04469 -16.57914 222 ft 8 kts 338°
2026-04-30 12:11 28.04515 -16.57946 223 ft 8 kts 302°
2026-04-30 12:11 28.04511 -16.58005 223 ft 8 kts 249°
2026-04-30 12:11 28.04493 -16.58060 223 ft 6 kts 249°
2026-04-30 12:11 28.04502 -16.58094 224 ft 5 kts 324°
2026-04-30 12:12 28.04531 -16.58108 225 ft 5 kts 338°
2026-04-30 12:12 28.04558 -16.58120 226 ft 0 kts 338°
2026-04-30 12:12 28.04559 -16.58121 225 ft 0 kts 338°